Starlink 3291

operational
NORAD ID: 50175 Int'l Des: 2021-125 Owner: SPXS Country: US Constellation: starlink
LEOCIRCULAR

About Starlink 3291

Description loading...

Live Position

Loading 3D Globe...

Upcoming Passes

Altitude History

Altitude vs Time

uPlot chart will show altitude changes over time

Two-Line Element Set

1 50175U 21125V 25350.17767822 .00001360 00000-0 10354-3 0 9990
2 50175 53.2174 264.0211 0001523 85.4522 274.6644 15.08841154223990
Epoch: Dec 16, 2025 • Age: 20 hours

Current Status

Altitude 542.1 km
Velocity 7.59 km/s
Sub-Earth Point -7.56°S, 2.57°W
Launch Date Dec 18, 2021
Age 3.9 years
Type internet

Technical Details

Classification Payload
Mass 290.00 kg
Dry Mass 270.00 kg
Total Mass 290.00 kg
Length 0.20 m
Diameter 2.80 m
Span 9.00 m
Shape Box + pan
Manufacturer SPXS
Bus Type Starlink
Phase Status In Orbit
Owner/State SPXS/US

Large Constellations

Loading constellations...